Lubbock, TX

2:31 PM CST on November 11, 2019 (GMT -0600)
Lubbock International

Weather History for KLBB - September, 2019

Change the Weather History Date:

Sunday, September 15, 2019

  Actual Average Record
Temperature  
Mean Temperature 77 °F 72 °F  
Max Temperature 90 °F 85 °F 99 °F (1956)
Min Temperature 64 °F 59 °F 42 °F (1993)
Degree Days  
Heating Degree Days 0 1  
Month to date heating degree days 0 2  
Since 1 July heating degree days 0 2  
Cooling Degree Days 12 7  
Month to date cooling degree days 205 141  
Year to date cooling degree days 1923 1667  
Growing Degree Days 27 (Base 50)    
Moisture  
Dew Point 54 °F    
Average Humidity 50    
Maximum Humidity 78    
Minimum Humidity 24    
Precipitation  
Precipitation 0.00 in 0.08 in 4.69 in (1995)
Month to date precipitation 0.51 1.29  
Year to date precipitation 16.10 14.36  
Snow  
Snow 0.00 in 0.00 in 0.00 in (2002)
Month to date snowfall 0.0 0.0  
Since 1 July snowfall 0.0 0.0  
Since 1 September snowfall 0.0 0.0  
Snow Depth 0.00 in    
Sea Level Pressure  
Sea Level Pressure 30.02 in    
Wind  
Wind Speed 7 mph ()    
Max Wind Speed 20 mph    
Max Gust Speed 25 mph    
Visibility 10.0 miles    
Events      
T = Trace of Precipitation, MM = Missing Value Source: Averaged Metar Reports

Daily Weather History Graph

Daily Weather History Graph

Search for Another Location

Airport or City:

Astronomy

Sep. 15, 2019 Rise Set
Actual Time 7:30 AM CDT 7:53 PM CDT
Civil Twilight 7:05 AM CDT 8:18 PM CDT
Nautical Twilight 6:36 AM CDT 8:48 PM CDT
Astronomical Twilight 6:06 AM CDT 9:17 PM CDT
Moon 9:05 PM CDT (9/15) 8:41 AM CDT (9/15)
Length of Visible Light 13h 13m
Length of Day
12h 23m
Full, 98% of the Moon is Illuminated
Sep 15
Full
Sep 21
Last Quarter
Sep 28
New
Oct 5
First Quarter
Oct 13
Full

Hourly Weather History & Observations

Time (CDT) Temp. Heat Index Dew Point Humidity Pressure Visibility Wind Dir Wind Speed Gust Speed Precip Events Conditions
12:53 AM 71.1 °F - 59.0 °F 66% 30.05 in 10.0 mi SSE 8.1 mph - N/A   Scattered Clouds
1:53 AM 69.1 °F - 57.9 °F 68% 30.05 in 10.0 mi SSE 8.1 mph - N/A   Scattered Clouds
2:53 AM 68.0 °F - 57.9 °F 70% 30.05 in 10.0 mi SSE 5.8 mph - N/A   Partly Cloudy
3:53 AM 66.0 °F - 57.9 °F 75% 30.04 in 10.0 mi SE 5.8 mph - N/A   Partly Cloudy
4:53 AM 66.0 °F - 57.9 °F 75% 30.03 in 10.0 mi SE 6.9 mph - N/A   Scattered Clouds
5:53 AM 66.0 °F - 57.9 °F 75% 30.04 in 10.0 mi SE 8.1 mph - N/A   Partly Cloudy
6:53 AM 64.9 °F - 57.0 °F 75% 30.06 in 10.0 mi SE 6.9 mph - N/A   Partly Cloudy
7:53 AM 64.9 °F - 57.0 °F 75% 30.06 in 10.0 mi SSE 4.6 mph - N/A   Scattered Clouds
8:53 AM 71.1 °F - 57.0 °F 61% 30.07 in 10.0 mi South 5.8 mph - N/A   Scattered Clouds
9:53 AM 75.9 °F - 57.0 °F 52% 30.08 in 10.0 mi South 5.8 mph - N/A   Partly Cloudy
10:53 AM 81.0 °F 80.7 °F 55.0 °F 41% 30.08 in 10.0 mi SW 10.4 mph - N/A   Partly Cloudy
11:53 AM 84.9 °F 83.2 °F 53.1 °F 33% 30.06 in 10.0 mi SSW 11.5 mph 17.3 mph N/A   Partly Cloudy
12:53 PM 86.0 °F 84.0 °F 53.1 °F 32% 30.05 in 10.0 mi South 9.2 mph - N/A   Partly Cloudy
1:53 PM 87.1 °F - 51.1 °F 29% 30.03 in 10.0 mi SSE 11.5 mph 18.4 mph N/A   Scattered Clouds
2:53 PM 88.0 °F - 52.0 °F 29% 30.01 in 10.0 mi SSE 13.8 mph 20.7 mph N/A   Mostly Cloudy
3:53 PM 88.0 °F - 50.0 °F 27% 29.98 in 10.0 mi SSE 11.5 mph 20.7 mph N/A   Mostly Cloudy
4:53 PM 88.0 °F - 50.0 °F 27% 29.96 in 10.0 mi SSW 10.4 mph 23.0 mph N/A   Mostly Cloudy
5:53 PM 89.1 °F - 48.9 °F 25% 29.94 in 10.0 mi South 10.4 mph 24.2 mph N/A   Mostly Cloudy
6:53 PM 86.0 °F - 48.9 °F 28% 29.95 in 10.0 mi SSE 13.8 mph - N/A   Mostly Cloudy
7:53 PM 81.0 °F - 51.1 °F 35% 29.96 in 10.0 mi SSE 9.2 mph - N/A   Mostly Cloudy
8:53 PM 77.0 °F - 53.1 °F 43% 29.97 in 10.0 mi SSE 9.2 mph - N/A   Scattered Clouds
9:53 PM 75.0 °F - 54.0 °F 48% 29.99 in 10.0 mi SSE 9.2 mph - N/A   Scattered Clouds
10:53 PM 73.0 °F - 54.0 °F 51% 29.99 in 10.0 mi SSE 8.1 mph - N/A   Scattered Clouds
11:53 PM 73.0 °F - 55.0 °F 53% 29.99 in 10.0 mi SSE 6.9 mph - N/A   Scattered Clouds